Weather History for El Dorado, AR

Change the Weather History Date:

Monday, February 18, 2013

  Actual Average Record
Temperature  
Mean Temperature 58 °F 48 °F  
Max Temperature 66 °F 60 °F 85 °F (1986)
Min Temperature 49 °F 37 °F 8 °F (1910)
Degree Days  
Heating Degree Days 7 17  
Month to date heating degree days 283 334  
Since 1 July heating degree days 1838 2077  
Cooling Degree Days 0 0  
Month to date cooling degree days 0 0  
Year to date cooling degree days 6 2  
Growing Degree Days 7 (Base 50)    
Moisture  
Dew Point 50 °F    
Average Humidity 75    
Maximum Humidity 93    
Minimum Humidity 56    
Precipitation  
Precipitation 0.33 in 0.18 in 2.18 in (1938)
Month to date precipitation 2.35 3.05  
Year to date precipitation 6.01 7.35  
Snow  
Snow 0.00 in - - ()
Month to date snowfall 0.0  
Since 1 July snowfall 0.1  
Snow Depth 0.00 in    
Sea Level Pressure  
Sea Level Pressure 29.92 in    
Wind  
Wind Speed 12 mph (South)    
Max Wind Speed 29 mph    
Max Gust Speed 38 mph    
Visibility 10 miles    
Events Rain , Thunderstorm    
T = Trace of Precipitation, MM = Missing Value Source: NWS Daily Summary

Daily Weather History Graph

Daily Weather History Graph

Search for Another Location

Airport:

Trip Planner

Search our weather history database for the weather conditions in past years. The results will help you decide how hot, cold, wet, or windy it might be!

Date:

Astronomy

Feb. 18, 2013 Rise Set
Actual Time 6:51 AM CST 5:59 PM CST
Civil Twilight 6:26 AM CST 6:24 PM CST
Nautical Twilight 5:57 AM CST 6:53 PM CST
Astronomical Twilight 5:28 AM CST 7:22 PM CST
Moon 11:54 AM CST (2/18) 1:23 AM CST (2/18)
Length of Visible Light 11h 57m
Length of Day
11h 07m
First Quarter, 58% of the Moon is Illuminated
Feb 18
First Quarter
Feb 25
Full
Mar 4
Last Quarter
Mar 11
New
Mar 19
First Quarter

Hourly Weather History & Observations

Time (CST) Temp. Dew Point Humidity Pressure Visibility Wind Dir Wind Speed Gust Speed Precip Events Conditions
12:53 AM 52.0 °F 43.0 °F 71% 30.07 in 10.0 mi South 11.5 mph - N/A   Clear
1:53 AM 52.0 °F 43.0 °F 71% 30.05 in 10.0 mi South 12.7 mph 18.4 mph N/A   Clear
2:53 AM 51.8 °F 42.8 °F 71% 30.04 in 10.0 mi SSE 10.4 mph - N/A   Clear
3:53 AM 51.1 °F 43.0 °F 74% 30.02 in 10.0 mi South 8.1 mph - N/A   Mostly Cloudy
4:53 AM 51.1 °F 43.0 °F 74% 30.02 in 10.0 mi SSE 9.2 mph - N/A   Overcast
5:53 AM 51.8 °F 42.8 °F 71% 30.02 in 10.0 mi SE 9.2 mph - N/A   Overcast
6:53 AM 51.1 °F 43.0 °F 74% 30.01 in 10.0 mi SSE 11.5 mph - N/A   Overcast
7:53 AM 51.8 °F 44.6 °F 76% 30.01 in 10.0 mi SSE 11.5 mph - N/A   Overcast
8:53 AM 53.1 °F 46.0 °F 77% 30.00 in 10.0 mi SSE 12.7 mph - 0.00 in   Overcast
9:53 AM 57.0 °F 46.9 °F 69% 29.97 in 10.0 mi SSE 15.0 mph 24.2 mph N/A   Overcast
10:53 AM 61.0 °F 48.9 °F 64% 29.95 in 10.0 mi South 19.6 mph 32.2 mph N/A   Overcast
11:53 AM 64.0 °F 48.9 °F 58% 29.91 in 10.0 mi South 17.3 mph 31.1 mph N/A   Overcast
12:53 PM 64.0 °F 50.0 °F 60% 29.87 in 10.0 mi South 15.0 mph 29.9 mph N/A   Overcast
1:53 PM 64.0 °F 51.1 °F 63% 29.83 in 10.0 mi South 12.7 mph 23.0 mph N/A   Overcast
2:53 PM 64.0 °F 54.0 °F 70% 29.79 in 10.0 mi South 11.5 mph 19.6 mph 0.01 in Rain Light Rain
3:53 PM 64.9 °F 55.0 °F 70% 29.78 in 10.0 mi South 18.4 mph 31.1 mph 0.02 in   Mostly Cloudy
4:38 PM 62.6 °F 55.4 °F 77% 29.79 in 9.0 mi South 28.8 mph 38.0 mph 0.00 in Rain Light Rain
4:53 PM 61.0 °F 55.9 °F 83% 29.79 in 10.0 mi SSW 16.1 mph 31.1 mph 0.01 in Rain Light Rain
5:20 PM 60.8 °F 57.2 °F 88% 29.80 in 10.0 mi South 16.1 mph 21.9 mph 0.00 in Rain Light Rain
5:53 PM 59.0 °F 57.2 °F 94% 29.82 in 10.0 mi South 9.2 mph - N/A   Mostly Cloudy
6:22 PM 60.8 °F 57.2 °F 88% 29.82 in 10.0 mi South 9.2 mph - N/A   Mostly Cloudy
6:35 PM 60.8 °F 57.2 °F 88% 29.81 in 10.0 mi SSE 13.8 mph - 0.00 in Rain Light Rain
6:53 PM 60.1 °F 57.9 °F 93% 29.83 in 10.0 mi South 12.7 mph 20.7 mph 0.00 in Thunderstorm Overcast
7:09 PM 59.0 °F 53.6 °F 82% 29.89 in 1.5 mi West 11.5 mph 28.8 mph N/A Rain , Thunderstorm Heavy Thunderstorms and Rain
7:20 PM 57.2 °F 51.8 °F 82% 29.88 in 3.0 mi West 13.8 mph 31.1 mph 0.28 in Rain , Thunderstorm Heavy Thunderstorms and Rain
7:40 PM 57.2 °F 53.6 °F 88% 29.87 in 10.0 mi WSW 5.8 mph - 0.28 in   Overcast
7:53 PM 55.9 °F 53.1 °F 90% 29.86 in 10.0 mi SW 4.6 mph - 0.28 in   Overcast
8:53 PM 55.0 °F 53.1 °F 93% 29.89 in 10.0 mi West 5.8 mph - N/A   Partly Cloudy
9:53 PM 55.0 °F 48.0 °F 77% 29.96 in 10.0 mi NNW 13.8 mph 20.7 mph 0.01 in   Scattered Clouds
10:53 PM 50.0 °F 42.1 °F 74% 30.01 in 10.0 mi NNW 9.2 mph - N/A   Clear
11:53 PM 48.9 °F 39.9 °F 71% 30.04 in 10.0 mi NNW 10.4 mph - N/A   Clear